When you browse on this site, cookies collect data to enhance your experience and personalize the content and advertising you see.
Visit our Privacy Policy to learn more. By continuing to use the site, you agree to this use of cookies and data.
  • In Hungary
  • List of Countries
  • For 7 days
  • Water Temperature
  • Satellite Maps
  • Weather Map
  • News
  • Weather Widgets
  • user-avatar
    Login

    Hourly Weather Dalat

    Today, 18 January, Friday

    Time Temperature Precipitation Wind Pressure Humidity
    00:00 +16°C° 0 mm 2 mps 653 mmHg 91%
    01:00 +16°C° 0 mm 3 mps 653 mmHg 90%
    02:00 +16°C° 0 mm 3 mps 653 mmHg 90%
    03:00 +16°C° 0 mm 2 mps 652 mmHg 91%
    04:00 +16°C° 0 mm 2 mps 652 mmHg 91%
    05:00 +16°C° 0 mm 2 mps 653 mmHg 90%
    06:00 +16°C° 0 mm 2 mps 653 mmHg 89%
    07:00 +16°C° 0 mm 2 mps 653 mmHg 88%
    08:00 +18°C° 0 mm 3 mps 654 mmHg 78%
    09:00 +20°C° 0 mm 3 mps 654 mmHg 68%
    10:00 +22°C° 0 mm 3 mps 655 mmHg 59%
    11:00 +24°C° 0 mm 3 mps 655 mmHg 55%
    12:00 +25°C° 0 mm 3 mps 655 mmHg 51%
    13:00 +26°C° 0 mm 3 mps 655 mmHg 47%
    14:00 +25°C° 0 mm 3 mps 654 mmHg 50%
    15:00 +24°C° 0 mm 3 mps 654 mmHg 53%
    16:00 +24°C° 0 mm 3 mps 654 mmHg 55%
    17:00 +20°C° 0 mm 2 mps 653 mmHg 67%
    18:00 +18°C° 0 mm 2 mps 653 mmHg 79%
    19:00 +16°C° 0 mm 1 mps 652 mmHg 91%
    20:00 +16°C° 0 mm 1 mps 653 mmHg 92%
    21:00 +16°C° 0 mm 2 mps 653 mmHg 92%
    22:00 +16°C° 0 mm 2 mps 653 mmHg 93%
    23:00 +16°C° 0 mm 2 mps 653 mmHg 93%

    Tomorrow, 19 January, Saturday

    Time Temperature Precipitation Wind Pressure Humidity
    00:00 +16°C° 0 mm 2 mps 653 mmHg 93%
    01:00 +16°C° 0 mm 2 mps 653 mmHg 93%
    02:00 +16°C° 0 mm 2 mps 653 mmHg 93%
    03:00 +16°C° 0 mm 2 mps 652 mmHg 93%
    04:00 +16°C° 0 mm 2 mps 652 mmHg 94%
    05:00 +16°C° 0 mm 2 mps 652 mmHg 93%
    06:00 +16°C° 0 mm 2 mps 652 mmHg 92%
    07:00 +16°C° 0 mm 2 mps 652 mmHg 91%
    08:00 +19°C° 0 mm 2 mps 653 mmHg 79%
    09:00 +21°C° 0 mm 2 mps 654 mmHg 67%
    10:00 +25°C° 0 mm 2 mps 655 mmHg 56%
    11:00 +26°C° 0 mm 2 mps 655 mmHg 53%
    12:00 +27°C° 0 mm 2 mps 655 mmHg 50%
    13:00 +28°C° 0 mm 2 mps 655 mmHg 47%
    14:00 +26°C° 0 mm 2 mps 654 mmHg 53%
    15:00 +25°C° 0 mm 2 mps 653 mmHg 59%
    16:00 +24°C° 0 mm 2 mps 653 mmHg 64%
    17:00 +21°C° 0.1 mm 2 mps 653 mmHg 73%
    18:00 +21°C° 0.1 mm 1 mps 652 mmHg 83%
    19:00 +19°C° 0.1 mm 1 mps 652 mmHg 92%
    20:00 +18°C° 0 mm 1 mps 653 mmHg 93%
    21:00 +18°C° 0 mm 1 mps 653 mmHg 94%
    22:00 +16°C° 0 mm 1 mps 653 mmHg 95%
    23:00 +16°C° 0 mm 1 mps 653 mmHg 95%

    Day after tomorrow, 20 January, Sunday

    Time Temperature Precipitation Wind Pressure Humidity
    00:00 +15°C° 0 mm 1 mps 652 mmHg 94%
    01:00 +15°C° 0 mm 1 mps 652 mmHg 94%
    02:00 +15°C° 0 mm 1 mps 652 mmHg 93%
    03:00 +14°C° 0 mm 1 mps 651 mmHg 92%
    04:00 +14°C° 0 mm 1 mps 651 mmHg 91%
    05:00 +15°C° 0 mm 1 mps 652 mmHg 90%
    06:00 +15°C° 0 mm 1 mps 652 mmHg 88%
    07:00 +15°C° 0 mm 1 mps 653 mmHg 87%
    08:00 +19°C° 0 mm 1 mps 654 mmHg 74%
    09:00 +21°C° 0 mm 2 mps 655 mmHg 61%
    10:00 +26°C° 0 mm 2 mps 656 mmHg 47%
    11:00 +27°C° 0 mm 2 mps 656 mmHg 45%
    12:00 +28°C° 0 mm 2 mps 655 mmHg 43%
    13:00 +29°C° 0 mm 2 mps 655 mmHg 41%
    14:00 +28°C° 0 mm 2 mps 654 mmHg 45%
    15:00 +27°C° 0 mm 2 mps 653 mmHg 50%
    16:00 +26°C° 0 mm 2 mps 653 mmHg 54%
    17:00 +24°C° 0 mm 2 mps 653 mmHg 66%
    18:00 +21°C° 0 mm 1 mps 652 mmHg 78%
    19:00 +19°C° 0 mm 1 mps 652 mmHg 89%
    20:00 +19°C° 0 mm 1 mps 653 mmHg 91%
    21:00 +18°C° 0 mm 1 mps 653 mmHg 92%
    22:00 +18°C° 0 mm 1 mps 653 mmHg 94%
    23:00 +16°C° 0 mm 1 mps 653 mmHg 94%

    21 January, Monday

    Time Temperature Precipitation Wind Pressure Humidity
    00:00 +16°C° 0 mm 1 mps 653 mmHg 94%
    01:00 +15°C° 0 mm 1 mps 652 mmHg 95%
    02:00 +15°C° 0 mm 1 mps 652 mmHg 95%
    03:00 +15°C° 0 mm 1 mps 652 mmHg 95%
    04:00 +15°C° 0 mm 1 mps 651 mmHg 95%
    05:00 +16°C° 0 mm 1 mps 652 mmHg 94%
    06:00 +16°C° 0 mm 1 mps 652 mmHg 92%
    07:00 +16°C° 0 mm 1 mps 653 mmHg 91%
    08:00 +20°C° 0 mm 1 mps 654 mmHg 78%
    09:00 +23°C° 0 mm 1 mps 655 mmHg 64%
    10:00 +26°C° 0 mm 1 mps 656 mmHg 51%
    11:00 +27°C° 0 mm 1 mps 656 mmHg 46%
    12:00 +28°C° 0 mm 1 mps 655 mmHg 42%
    13:00 +29°C° 0 mm 1 mps 655 mmHg 38%
    14:00 +28°C° 0 mm 1 mps 654 mmHg 43%
    15:00 +27°C° 0 mm 1 mps 653 mmHg 48%
    16:00 +25°C° 0 mm 1 mps 653 mmHg 53%
    17:00 +23°C° 0 mm 1 mps 653 mmHg 65%
    18:00 +21°C° 0 mm 1 mps 652 mmHg 76%
    19:00 +19°C° 0 mm 1 mps 652 mmHg 88%
    20:00 +19°C° 0 mm 1 mps 653 mmHg 90%
    21:00 +18°C° 0 mm 1 mps 653 mmHg 92%
    22:00 +18°C° 0 mm 1 mps 654 mmHg 94%
    23:00 +18°C° 0 mm 1 mps 653 mmHg 94%

    22 January, Tuesday

    Time Temperature Precipitation Wind Pressure Humidity
    00:00 +18°C° 0 mm 1 mps 653 mmHg 94%
    01:00 +16°C° 0 mm 1 mps 653 mmHg 94%
    02:00 +16°C° 0 mm 1 mps 652 mmHg 94%
    03:00 +16°C° 0 mm 1 mps 652 mmHg 94%
    04:00 +16°C° 0 mm 1 mps 652 mmHg 93%
    05:00 +16°C° 0 mm 1 mps 652 mmHg 92%
    06:00 +17°C° 0 mm 2 mps 653 mmHg 90%
    07:00 +17°C° 0 mm 2 mps 653 mmHg 89%
    08:00 +19°C° 0 mm 2 mps 654 mmHg 80%
    09:00 +21°C° 0 mm 3 mps 655 mmHg 72%
    10:00 +24°C° 0 mm 3 mps 656 mmHg 63%
    11:00 +22°C° 0.1 mm 3 mps 655 mmHg 66%
    12:00 +21°C° 0.1 mm 3 mps 654 mmHg 69%
    13:00 +21°C° 0.1 mm 2 mps 653 mmHg 72%
    14:00 +21°C° 0 mm 3 mps 653 mmHg 72%
    15:00 +21°C° 0 mm 3 mps 653 mmHg 71%
    16:00 +21°C° 0 mm 3 mps 653 mmHg 71%
    17:00 +19°C° 0 mm 2 mps 653 mmHg 77%
    18:00 +18°C° 0 mm 2 mps 653 mmHg 83%
    19:00 +17°C° 0 mm 2 mps 653 mmHg 89%
    20:00 +16°C° 0 mm 2 mps 653 mmHg 90%
    21:00 +16°C° 0 mm 2 mps 654 mmHg 91%
    22:00 +15°C° 0 mm 2 mps 654 mmHg 92%
    23:00 +15°C° 0 mm 2 mps 653 mmHg 92%

    23 January, Wednesday

    Time Temperature Precipitation Wind Pressure Humidity
    00:00 +15°C° 0 mm 2 mps 653 mmHg 93%
    01:00 +15°C° 0 mm 2 mps 653 mmHg 93%
    02:00 +15°C° 0 mm 2 mps 653 mmHg 93%
    03:00 +15°C° 0 mm 2 mps 652 mmHg 92%
    04:00 +15°C° 0 mm 2 mps 652 mmHg 92%
    05:00 +15°C° 0 mm 2 mps 653 mmHg 91%
    06:00 +16°C° 0 mm 2 mps 653 mmHg 89%
    07:00 +16°C° 0 mm 2 mps 653 mmHg 88%
    08:00 +17°C° 0 mm 2 mps 654 mmHg 81%
    09:00 +19°C° 0 mm 2 mps 655 mmHg 73%
    10:00 +21°C° 0 mm 3 mps 656 mmHg 66%
    11:00 +21°C° 0 mm 2 mps 655 mmHg 63%
    12:00 +23°C° 0 mm 2 mps 655 mmHg 60%
    13:00 +24°C° 0 mm 2 mps 655 mmHg 57%
    14:00 +23°C° 0 mm 2 mps 654 mmHg 59%
    15:00 +23°C° 0 mm 2 mps 654 mmHg 61%
    16:00 +21°C° 0 mm 2 mps 653 mmHg 63%
    17:00 +19°C° 0 mm 2 mps 653 mmHg 73%
    18:00 +17°C° 0 mm 2 mps 653 mmHg 82%
    19:00 +15°C° 0 mm 1 mps 653 mmHg 91%
    20:00 +15°C° 0 mm 1 mps 653 mmHg 93%
    21:00 +14°C° 0 mm 1 mps 653 mmHg 94%
    22:00 +14°C° 0 mm 1 mps 654 mmHg 96%
    23:00 +14°C° 0 mm 1 mps 653 mmHg 96%
    Show more